Location: Clanezzo
(45.7500°N, 9.6000°E)
Time: 17:28:32
(UTC+00:00)

ESTCUBE 1 - Pass Details

Date: 02 July 2022
Orbit: 645 x 657 km, 97.9° (Epoch: 19 August)

Event Time Altitude Azimuth Distance (km) Brightness Sun altitude
Exits shadow 20:24:13 11° 116° (ESE) 1,977 ? -9.9°
Maximum altitude 20:27:33 24° 65° (ENE) 1,355 ? -10.3°
Drops below altitude 10° 20:31:06 10° 12° (NNE) 2,061 ? -10.7°
Sets 20:33:40 0° 359° (N) 2,979 ? -10.9°
